Погода в Даниловке

Погода в Даниловке : погода сейчас, прогноз погоды и архив. Всё, что Вы хотите узнать о погоде в Даниловке!

Хотите узнать прогноз погоды в Даниловке? Тогда Вам сюда: Погода в Даниловке

Поиск расширенной информации на нашем сайте:

Другие новости

Новости СМИ2

Главная страница сайта

Новости сайта

03.07.2017

Напоминаем, что на нашем специализированном сайте Метеоцентр.Азия вы можете получить высокодетализированные автоматические прогнозы погоды по пунктам России, СНГ и мира в авиационном формате (включающие направление и скорость ветра, видимость, явления погоды, количество и форму облачности, нижнюю и верхнюю границу облачности).


Погода в Даниловке - сегодня

Время (UTC), дата Ветер
(°,м/с) 
Видим.   Явления Облачность Т
(°С)
Тd
(°С)
f(%) Тe
(°С)
Pmin
(гПа)
dP
(гПа)
Po
(мм)
O2
(г/м3)
Тmin Tmax R s Состояние
почвы
09 19.07.17 050 (СВ) 4{10}  20000 м    3/3 600 м верхняя 
[Cu med, cong|Ci fib]
+26.5 +9.8 35 +27  1015.1  -1.1  752  275           
12 19.07.17 050 (СВ) 5{10}  20000 м    5/5 600 м 
[Cu med, cong]
+27.7 +9.6 32 +28  1013.9  -1.1  752  273           
15 19.07.17 040 (СВ) 20000 м    4/3 600 м верхняя 
[Cu hum|Ci fib]
+26.3 +9.4 34 +27  1013.4  -0.6  751  275    +27.9       
18 19.07.17 020 (С) 20000 м    8/3 600 м средняя, верхняя 
[Sc diur, vesp|Ac trans|Ci fib]
+20.7 +10.7 53 +23  1014  0.4  752  280           
21 19.07.17 020 (С) 20000 м    5/0 средняя 
[Ac trans]
+18.7 +10.9 60 +21  1013.1  -1  751  281           
00 20.07.17 020 (С) 20000 м    5/0 средняя, верхняя 
[Ac trans|Ci fib]
+17.3 +11.9 71 +22  1012.4  -0.8  750  282           
03 20.07.17 020 (С) 20000 м    3/3 600 м средняя 
[Sc|Ac trans]
+19 +12.8 67 +24  1011.7  -0.6  750  280  +16.9        сухая 
06 20.07.17 030 (СВ) 5{12}  20000 м    3/0 верхняя 
[Ci fib]
+24.3 +13.9 52 +31  1011.5  750  275           
09 20.07.17 020 (С) 5{10}  20000 м    4/1 600 м верхняя 
[Cu hum|Ci fib]
+28.4 +13.9 41 +35  1010.9  -0.4  749  271           
12 20.07.17 030 (СВ) 20000 м    10/4 600 м верхняя 
[Cu med, cong|Cs]
+29.5 +13.5 38 +36  1009.7  -1.2  749  270           
15 20.07.17 040 (СВ) 20000 м    10/0 верхняя 
[Cs]
+28.1 +16.3 49 +39  1009.7  0.1  756  273    +29.6       
18 20.07.17 010 (С) 20000 м    10/0 средняя, верхняя 
[Ac trans|Cs]
+23.2 +13.6 55 +30  1011.2  1.2  750  276           
21 20.07.17 030 (СВ) 20000 м    10/0 средняя, верхняя 
[Ac trans|Cs]
+21 +13.7 63 +28  1010.4  -0.9  749  277           
00 21.07.17 310 (СЗ) 20000 м    8/0 средняя 
[Ac trans]
+18.2 +12.7 70 +25  1010.7  0.2  749  280           
03 21.07.17 350 (С) 20000 м    9/0 средняя 
[Ac trans]
+18.8 +14 74 +26  1011.6  0.9  750  280  +17.9        сухая 
06 21.07.17 010 (С) 20000 м    5/0 средняя 
[Ac trans]
+24.7 +14 51 +32  1011.8  0.4  750  274           
09 21.07.17 350 (С) 4{11}  20000 м    10/0 средняя, верхняя 
[Ac trans|Cs]
+27.4 +10.7 35 +29  1012.3  0.6  750  273           
12 21.07.17 010 (С) 20000 м    8/0 средняя, верхняя 
[Ac trans|Ci fib]
+29.3 +8.9 28 +29  1012.3  0.1  751  272           
15 21.07.17 010 (С) 20000 м    1/0 средняя 
[Ac trans]
+27.6 +7.3 28 +28  1012.6  0.2  751  274    +29.5       
18 21.07.17 350 (С) 20000 м    ясно 
+19.4 +11 58 +22  1014.5  1.6  752  281           
21 21.07.17 тихо ()   20000 м    ясно 
+13.5 +10.6 83 +15  1015.2  0.4  752  287           
00 22.07.17 тихо ()   20000 м    ясно 
+10.8 +9.4 91 +11  1015.5  0.2  752  290           
03 22.07.17 тихо ()   20000 м    ясно 
+14.2 +10.9 81 +16  1016  0.6  753  286  +10.2        сухая 
06 22.07.17 250 (З) 20000 м    ясно 
+26.4 +12.1 41 +30  1015.9  0.4  753  274           
09 22.07.17 270 (З) 20000 м    ясно 
+29.9 +8.5 26 +30  1015.1  -0.7  753  272           
Время (UTC), дата Ветер
(°,м/с) 
Видим.   Явления Облачность Т
(°С)
Тd
(°С)
f(%) Тe
(°С)
Pmin
(гПа)
dP
(гПа)
Po
(мм)
O2
(г/м3)
Тmin Tmax R s Состояние
почвы

Для получения пояснительной информации подведите курсор к названию столбца.

ПОГОДА в Даниловке - архив

Всё, что Вы хотите узнать о погоде в Даниловке - удобно и подробно!

Выберите нужную дату (начиная с 1 января 2015* года) и нажмите кнопку "Найти".
Будут отображены архивные сводки погоды по пункту Даниловка, начиная с указанной даты.


Отображать данные в формате CSV (для использования в таблицах Excel)


Внимание! Наш архив погоды предназначен исключительно для личного некоммерческого использования в познавательных целях. Если Вам необходимы официальные справки о состоянии погоды (для производственных, юридических, коммерческих и т.п. целей), обращайтесь в органы Росгидромета.

*Примечание: данная дата относится к архиву по метеостанциям СССР (Россия, СНГ, Балтия).
Архив по метеостанциям Зарубежной Европы и Азии (кроме Китая) хранится 10 дней, по другим регионам земного шара (Китай, Африка, Америка, Австралия, Океания) - 1 день.

Даниловка - район местоположения метеостанции


Название, широта, долгота, высота метеостанции:
Даниловка 50.4°ш. 44.1°д. 102 м над ур. моря [Российская Федерация]

Дополнительная информация

В oтличие oт бoльшинства пoгoдных сайтoв мы публикуем пoдрoбную метеoинфoрмацию в детальнoм прoфессиoнальнoм фoрмате.

Характеристики температуры и влажнoсти вoздуха измеряются на высoте 2 м в тени вдали oт зданий и деревьев.
Скoрoсть ветра измеряется на высoте 10 м (на урoвне рoста челoвека скoрoсть ветра ниже в 1.5-2 раза). Если метеoстанция нахoдится в гoрoде или в лесу, тo скoрoсть ветра занижена на 2-4 м/с пo сравнению с oткрытым местoм. Скoрoсть ветра над акватoриями крупных рек и oзёр, а также на вершинах хoлмoв на 2-5 м/с выше, чем в oбычных услoвиях.
Атмoсфернoе давление в разных тoчках местнoсти мoжет значительнo oтличаться oт давления на метеoстанции, в зависимoсти oт услoвий рельефа (при пoдъёме на 10 м давление пoнижается примернo на 1 мм рт.ст.).